FW2003 Weather Reports


Display with metric or nautical units.
time (UTC)temp
F
wind
direction
speed
MPH
gust
MPH
rain 1hr
in
rain 24hr
in
rain mn
in
humidity
%
barometer
mb
20260502170335 57 246 0.0 0.0 0.00 0.00 0.00 79 1014.4
20260502164319 57 105 1.0 2.0 0.00 0.00 0.00 78 1014.4
20260502163851 57 103 0.0 0.0 0.00 0.00 0.00 78 1014.4
20260502163321 57 103 0.0 1.0 0.00 0.00 0.00 79 1014.5
20260502162833 57 101 0.0 0.0 0.00 0.00 0.00 79 1014.6
20260502162324 56 101 0.0 0.0 0.00 0.00 0.00 80 1014.6
20260502161816 56 101 0.0 0.0 0.00 0.00 0.00 80 1014.7
20260502161347 56 101 0.0 0.0 0.00 0.00 0.00 81 1014.7
20260502160818 56 101 0.0 0.0 0.00 0.00 0.00 81 1014.7
20260502160328 55 101 0.0 2.0 0.00 0.00 0.00 82 1014.7
20260502152324 53 236 0.0 0.0 0.00 0.00 0.00 85 1014.7
20260502151816 53 236 0.0 0.0 0.00 0.00 0.00 87 1014.6
20260502151328 52 263 0.0 1.0 0.00 0.00 0.00 87 1014.7
20260502150824 52 266 0.0 1.0 0.00 0.00 0.00 87 1014.5
20260502150315 52 266 0.0 0.0 0.00 0.00 0.00 87 1014.6
20260502130326 49 66 0.0 0.0 0.00 0.00 0.00 89 1014.2
20260502123324 50 66 0.0 0.0 0.00 0.00 0.00 88 1014.3
20260502122837 50 66 0.0 1.0 0.00 0.00 0.00 88 1014.3
20260502122328 50 66 0.0 0.0 0.00 0.00 0.00 87 1014.3
20260502121820 50 66 0.0 0.0 0.00 0.00 0.00 87 1014.3
20260502121332 51 66 0.0 0.0 0.00 0.00 0.00 87 1014.3
20260502120824 51 66 0.0 0.0 0.00 0.00 0.00 87 1014.4
20260502120320 51 66 0.0 0.0 0.00 0.00 0.00 87 1014.3
20260502115832 50 66 0.0 0.0 0.00 0.00 0.00 87 1014.3
20260502115325 50 289 0.0 0.0 0.00 0.00 0.00 87 1014.3
20260502114836 50 289 0.0 0.0 0.00 0.00 0.00 87 1014.4
20260502114328 50 289 0.0 0.0 0.00 0.00 0.00 88 1014.3
20260502113818 50 289 0.0 0.0 0.00 0.00 0.00 88 1014.3
20260502113331 50 289 0.0 0.0 0.00 0.00 0.00 88 1014.4
20260502112823 50 289 0.0 0.0 0.00 0.00 0.00 87 1014.5
20260502112320 50 289 0.0 0.0 0.00 0.00 0.00 88 1014.5
20260502111833 50 289 0.0 0.0 0.00 0.00 0.00 87 1014.5
20260502111326 50 289 0.0 0.0 0.00 0.00 0.00 87 1014.5
20260502110819 50 289 0.0 0.0 0.00 0.00 0.00 87 1014.5
20260502110331 50 289 0.0 0.0 0.00 0.00 0.00 87 1014.5
20260502105823 50 289 0.0 0.0 0.00 0.00 0.00 86 1014.4
20260502105315 51 289 0.0 0.0 0.00 0.00 0.00 86 1014.4
20260502104848 51 289 0.0 0.0 0.00 0.00 0.00 86 1014.6
20260502104319 51 289 0.0 0.0 0.00 0.00 0.00 85 1014.5
20260502103837 51 289 0.0 0.0 0.00 0.00 0.00 86 1014.7
20260502103328 51 289 0.0 0.0 0.00 0.00 0.00 85 1014.6
20260502102818 51 289 0.0 0.0 0.00 0.00 0.00 85 1014.6
20260502102330 51 289 0.0 0.0 0.00 0.00 0.00 84 1014.7
20260502101823 51 289 0.0 0.0 0.00 0.00 0.00 85 1014.7
20260502101314 51 289 0.0 0.0 0.00 0.00 0.00 85 1014.7
20260502100826 51 289 0.0 0.0 0.00 0.00 0.00 85 1014.7
20260502100317 51 289 0.0 0.0 0.00 0.00 0.00 85 1014.7
20260502091326 52 289 0.0 0.0 0.00 0.00 0.00 83 1015.1
20260502090822 52 289 0.0 0.0 0.00 0.00 0.00 83 1015.1
20260502090315 52 289 0.0 0.0 0.00 0.00 0.00 82 1015.1
20260502071326 55 97 0.0 0.0 0.00 0.00 0.00 75 1015.8
20260502070838 56 97 0.0 0.0 0.00 0.00 0.00 74 1015.7
20260502070329 56 97 0.0 0.0 0.00 0.00 0.00 73 1015.7
20260502065822 57 97 0.0 1.0 0.00 0.00 0.00 72 1015.7
20260502065317 57 97 0.0 1.0 0.00 0.00 0.00 71 1015.8
20260502064829 57 97 0.0 3.0 0.00 0.00 0.00 71 1015.6
20260502064322 57 98 0.0 3.0 0.00 0.00 0.00 71 1015.8
20260502063813 57 102 1.0 1.0 0.00 0.00 0.00 73 1015.8
20260502063325 56 96 0.0 0.0 0.00 0.00 0.00 74 1015.8
20260502062817 56 96 0.0 0.0 0.00 0.00 0.00 74 1015.8
20260502062330 56 96 0.0 0.0 0.00 0.00 0.00 74 1015.8
20260502061841 56 96 0.0 0.0 0.00 0.00 0.00 74 1015.9
20260502061330 56 96 0.0 0.0 0.00 0.00 0.00 73 1015.9
20260502060826 56 96 0.0 0.0 0.00 0.00 0.00 73 1015.9
20260502060318 57 96 0.0 0.0 0.00 0.00 0.00 71 1015.9
20260502055829 57 96 0.0 0.0 0.00 0.00 0.00 70 1015.9
20260502055321 57 96 0.0 0.0 0.00 0.00 0.00 70 1015.9
20260502054833 57 96 0.0 0.0 0.00 0.00 0.00 70 1015.7
20260502054326 58 96 0.0 1.0 0.00 0.00 0.00 69 1015.7
20260502053818 58 96 0.0 1.0 0.00 0.00 0.00 69 1015.9
20260502053331 58 95 0.0 0.0 0.00 0.00 0.00 68 1015.9
20260502052843 58 95 0.0 0.0 0.00 0.00 0.00 67 1015.8
20260502052335 59 95 0.0 1.0 0.00 0.00 0.00 67 1015.9
20260502051831 59 95 0.0 1.0 0.00 0.00 0.00 66 1015.9
20260502051322 59 96 0.0 1.0 0.00 0.00 0.00 66 1015.9
20260502050815 59 12 0.0 2.0 0.00 0.00 0.00 66 1015.8
20260502050327 59 100 1.0 2.0 0.00 0.00 0.00 66 1015.8
20260502045819 59 103 0.0 0.0 0.00 0.00 0.00 65 1015.8
20260502045332 59 102 0.0 1.0 0.00 0.00 0.00 65 1015.6
20260502044825 60 102 0.0 1.0 0.00 0.00 0.00 64 1015.5
20260502044336 60 102 0.0 0.0 0.00 0.00 0.00 64 1015.6
20260502043828 60 102 0.0 0.0 0.00 0.00 0.00 64 1015.5
20260502043323 60 102 0.0 0.0 0.00 0.00 0.00 64 1015.4
20260502042817 60 102 0.0 1.0 0.00 0.00 0.00 63 1015.5
20260502042329 61 102 0.0 1.0 0.00 0.00 0.00 63 1015.5
20260502041841 61 158 0.0 1.0 0.00 0.00 0.00 62 1015.4
20260502041331 61 112 0.0 0.0 0.00 0.00 0.00 62 1015.4
20260502040823 61 56 0.0 1.0 0.00 0.00 0.00 61 1015.3
20260502040315 61 56 0.0 2.0 0.00 0.00 0.00 60 1015.2
20260502035828 62 76 0.0 8.0 0.00 0.00 0.00 60 1015.0
20260502035323 62 92 0.0 8.0 0.00 0.00 0.00 59 1015.0
20260502034815 62 82 2.0 6.0 0.00 0.00 0.00 58 1015.0
20260502034325 62 52 0.0 6.0 0.00 0.00 0.00 57 1015.0
20260502033838 63 115 2.0 9.0 0.00 0.00 0.00 57 1014.9
20260502033330 63 22 4.0 9.0 0.00 0.00 0.00 56 1014.7
20260502032842 64 46 3.0 7.0 0.00 0.00 0.00 55 1014.7
20260502032332 64 89 2.0 9.0 0.00 0.00 0.00 55 1014.7
20260502031844 64 34 2.0 6.0 0.00 0.00 0.00 55 1014.5
20260502031336 64 330 1.0 5.0 0.00 0.00 0.00 58 1014.7
20260502030828 65 302 0.0 4.0 0.00 0.00 0.00 56 1014.6
20260502030320 65 267 1.0 6.0 0.00 0.00 0.00 57 1014.4
20260502025817 65 22 3.0 6.0 0.00 0.00 0.00 56 1014.3
20260502025330 65 340 1.0 8.0 0.00 0.00 0.00 57 1014.3
20260502024824 66 298 2.0 8.0 0.00 0.00 0.00 55 1014.3
20260502024316 66 132 2.0 7.0 0.00 0.00 0.00 54 1014.2
20260502023827 66 32 2.0 6.0 0.00 0.00 0.00 54 1014.3
20260502023319 67 81 2.0 8.0 0.00 0.00 0.00 54 1014.1
20260502022832 67 354 2.0 8.0 0.00 0.00 0.00 54 1014.0
20260502022344 67 46 3.0 6.0 0.00 0.00 0.00 54 1013.8
20260502021819 68 325 3.0 6.0 0.00 0.00 0.00 54 1013.8
20260502021330 68 13 1.0 5.0 0.00 0.00 0.00 54 1013.7
20260502020822 69 53 1.0 6.0 0.00 0.00 0.00 54 1013.6
20260502020332 69 39 2.0 7.0 0.00 0.00 0.00 53 1013.4
20260502015823 69 8 4.0 10.0 0.00 0.00 0.00 52 1013.4
20260502015315 70 39 3.0 10.0 0.00 0.00 0.00 52 1013.4
20260502014827 71 309 2.0 6.0 0.00 0.00 0.00 52 1013.4
20260502014319 71 77 3.0 6.0 0.00 0.00 0.00 51 1013.3
20260502013831 71 328 1.0 5.0 0.00 0.00 0.00 50 1013.4
20260502013327 71 309 1.0 7.0 0.00 0.00 0.00 50 1013.3
20260502012819 72 161 1.0 7.0 0.00 0.00 0.00 49 1013.3
20260502012330 72 67 2.0 7.0 0.00 0.00 0.00 49 1013.3
20260502011822 73 277 3.0 7.0 0.00 0.00 0.00 49 1013.2
20260502011314 73 323 1.0 6.0 0.00 0.00 0.00 49 1013.2
20260502010826 73 263 2.0 6.0 0.00 0.00 0.00 48 1013.1
20260502010317 74 295 1.0 7.0 0.00 0.00 0.00 47 1013.1
20260502005828 74 315 2.0 7.0 0.00 0.00 0.00 47 1013.0
20260502005323 74 290 3.0 6.0 0.00 0.00 0.00 46 1012.9
20260502004815 74 272 2.0 9.0 0.00 0.00 0.00 46 1013.0
20260502004328 74 278 3.0 9.0 0.00 0.00 0.00 45 1013.1
20260502003818 74 299 3.0 8.0 0.00 0.00 0.00 45 1013.1
20260502003349 74 269 4.0 10.0 0.00 0.00 0.00 44 1013.0
20260502002819 75 274 2.0 10.0 0.00 0.00 0.00 44 1013.0
20260502002350 75 257 2.0 10.0 0.00 0.00 0.00 44 1012.9
20260502001820 76 262 2.0 9.0 0.00 0.00 0.00 44 1012.9
20260502001331 76 257 2.0 7.0 0.00 0.00 0.00 42 1012.8
20260502000823 76 288 3.0 10.0 0.00 0.00 0.00 42 1012.8
20260502000317 76 245 3.0 10.0 0.00 0.00 0.00 42 1012.8
20260501235828 76 315 1.0 10.0 0.00 0.00 0.00 42 1012.8
20260501235320 76 281 4.0 10.0 0.00 0.00 0.00 41 1012.8
20260501234831 77 281 5.0 11.0 0.00 0.00 0.00 40 1012.8
20260501234322 77 257 5.0 11.0 0.00 0.00 0.00 40 1012.8
20260501233854 77 281 3.0 7.0 0.00 0.00 0.00 39 1012.8
20260501233325 77 285 4.0 8.0 0.00 0.00 0.00 39 1012.9
20260501232817 77 277 3.0 8.0 0.00 0.00 0.00 39 1012.9
20260501232349 77 299 3.0 9.0 0.00 0.00 0.00 39 1013.0
20260501231820 77 274 4.0 10.0 0.00 0.00 0.00 39 1013.0
20260501231315 78 247 1.0 10.0 0.00 0.00 0.00 38 1013.1
20260501230827 77 241 1.0 7.0 0.00 0.00 0.00 38 1013.1
20260501230338 78 273 3.0 7.0 0.00 0.00 0.00 38 1013.2
20260501225829 78 285 2.0 7.0 0.00 0.00 0.00 38 1013.3
20260501225339 78 232 3.0 7.0 0.00 0.00 0.00 37 1013.2
20260501224830 78 310 1.0 7.0 0.00 0.00 0.00 37 1013.4
20260501224322 78 274 3.0 7.0 0.00 0.00 0.00 36 1013.4
20260501223814 78 270 3.0 9.0 0.00 0.00 0.00 37 1013.4
20260501223326 78 256 2.0 8.0 0.00 0.00 0.00 37 1013.7
20260501222821 78 207 4.0 8.0 0.00 0.00 0.00 35 1013.7
20260501222333 78 223 4.0 8.0 0.00 0.00 0.00 36 1013.7
20260501221823 77 97 1.0 8.0 0.00 0.00 0.00 37 1013.8
20260501221315 77 250 3.0 8.0 0.00 0.00 0.00 37 1013.9
20260501220847 78 243 1.0 7.0 0.00 0.00 0.00 37 1013.9
20260501220316 77 288 2.0 6.0 0.00 0.00 0.00 38 1014.0
20260501215827 77 230 3.0 8.0 0.00 0.00 0.00 39 1014.2
20260501215319 77 224 2.0 8.0 0.00 0.00 0.00 40 1014.2
20260501214831 76 219 3.0 7.0 0.00 0.00 0.00 41 1014.3
20260501214322 76 250 1.0 7.0 0.00 0.00 0.00 38 1014.4
20260501213818 77 241 3.0 7.0 0.00 0.00 0.00 40 1014.5
20260501213328 76 262 1.0 7.0 0.00 0.00 0.00 38 1014.5
20260501212817 76 268 2.0 7.0 0.00 0.00 0.00 40 1014.5
20260501212349 76 240 2.0 7.0 0.00 0.00 0.00 40 1014.6
20260501211820 76 257 3.0 7.0 0.00 0.00 0.00 40 1014.7
20260501211352 76 300 3.0 7.0 0.00 0.00 0.00 38 1014.7
20260501210821 76 236 1.0 7.0 0.00 0.00 0.00 38 1014.8
20260501210332 76 312 1.0 4.0 0.00 0.00 0.00 41 1014.8
20260501205822 76 250 2.0 5.0 0.00 0.00 0.00 40 1014.9
20260501205313 75 259 3.0 5.0 0.00 0.00 0.00 41 1015.0
20260501204825 75 294 2.0 5.0 0.00 0.00 0.00 39 1015.0
20260501204317 75 263 1.0 7.0 0.00 0.00 0.00 43 1015.0
20260501203849 74 201 2.0 7.0 0.00 0.00 0.00 46 1015.0
20260501203344 73 330 1.0 5.0 0.00 0.00 0.00 45 1015.3
20260501202815 72 305 1.0 6.0 0.00 0.00 0.00 46 1015.3
20260501202326 72 266 1.0 7.0 0.00 0.00 0.00 47 1015.3
20260501201818 72 257 4.0 7.0 0.00 0.00 0.00 45 1015.5
20260501201329 73 233 2.0 5.0 0.00 0.00 0.00 45 1015.5
20260501200841 72 271 1.0 6.0 0.00 0.00 0.00 47 1015.5
20260501200332 71 278 2.0 6.0 0.00 0.00 0.00 47 1015.6
20260501195824 71 228 1.0 4.0 0.00 0.00 0.00 47 1015.6
20260501195316 71 262 2.0 5.0 0.00 0.00 0.00 48 1015.7
20260501194827 71 267 1.0 5.0 0.00 0.00 0.00 48 1015.8
20260501194323 70 293 0.0 6.0 0.00 0.00 0.00 50 1015.8
20260501193814 69 277 2.0 6.0 0.00 0.00 0.00 49 1015.9
20260501193325 69 149 0.0 6.0 0.00 0.00 0.00 52 1016.0
20260501192816 69 272 1.0 4.0 0.00 0.00 0.00 49 1016.0
20260501192328 68 277 1.0 7.0 0.00 0.00 0.00 51 1016.1
20260501191820 68 234 1.0 4.0 0.00 0.00 0.00 53 1016.2
20260501191332 67 283 1.0 4.0 0.00 0.00 0.00 53 1016.3
20260501190824 67 310 1.0 6.0 0.00 0.00 0.00 53 1016.4
20260501190320 67 264 3.0 6.0 0.00 0.00 0.00 52 1016.3
20260501185850 66 338 0.0 5.0 0.00 0.00 0.00 53 1016.5
20260501185339 66 95 2.0 6.0 0.00 0.00 0.00 54 1016.5
20260501184830 66 239 3.0 6.0 0.00 0.00 0.00 52 1016.5
20260501184321 66 340 2.0 5.0 0.00 0.00 0.00 53 1016.5
20260501183833 66 274 3.0 6.0 0.00 0.00 0.00 53 1016.6
20260501183343 65 228 4.0 6.0 0.00 0.00 0.00 53 1016.6
20260501182813 65 254 2.0 6.0 0.00 0.00 0.00 55 1016.7
20260501182324 65 258 2.0 5.0 0.00 0.00 0.00 55 1016.6
20260501181815 65 269 2.0 6.0 0.00 0.00 0.00 55 1016.7
20260501181347 65 283 3.0 6.0 0.00 0.00 0.00 54 1016.8
20260501180841 64 236 1.0 5.0 0.00 0.00 0.00 55 1016.7
20260501180331 64 224 1.0 5.0 0.00 0.00 0.00 57 1016.7